[[{"header":{"parameterUnit":"m.s-1","parameterCategory":1,"la1":30.2992,"la2":30.254,"lo1":-89.0895,"lo2":-89.0443,"dy":0.0025,"dx":0.0025,"nx":19,"ny":19,"refTime":"2026-03-20T09:00:00:Z","depth":0,"parameterNumber":2,"parameterNumberName":"U-component_of_WINDS"},"data":[0,0,0,1.2855,1.2856,1.293,1.2931,1.3019,1.302,0,0,0,0,0,0,0,0,0,0,0,1.2828,1.2829,1.2854,1.2856,1.293,1.2931,1.3019,1.302,0,0,0,0,0,0,0,0,0,0,0,1.2828,1.2828,1.2829,1.2856,1.293,1.2931,1.3019,1.2965,0,0,0,0,0,0,0,0,0,0,1.2894,1.2865,1.2828,1.2829,1.2857,1.293,1.2931,1.2963,1.2969,1.2983,0,1.2994,0,1.3008,1.3026,1.3026,0,0,0,1.286,1.2861,1.2885,1.2829,1.2858,1.293,1.2898,1.2966,1.2973,1.299,1.2995,1.2998,1.301,1.3026,1.3026,1.3096,1.3096,0,0,1.2856,1.2839,1.288,1.2889,1.2876,1.2895,1.29,1.297,1.2974,1.2995,1.3001,1.3011,1.3027,1.3027,1.3096,1.3096,0,0,0,1.2841,1.2836,1.2859,1.2885,1.2899,1.2898,1.2903,1.2971,1.298,1.3002,1.3012,1.3027,1.3028,1.3095,1.3096,1.3088,0,0,0,1.2839,1.2828,1.2857,1.2847,1.2897,1.2936,1.2902,1.2975,1.2983,1.3012,1.3027,1.3029,1.3095,1.3096,1.3088,1.3087,0,0,0,1.2825,1.2826,1.2836,1.2846,1.2878,1.2935,1.2948,1.2977,1.299,1.3026,1.3029,1.3095,1.3095,1.3088,1.3087,1.3101,0,0,0,1.2805,1.2827,1.2835,1.2865,1.2877,1.293,1.2948,1.2988,1.3018,1.3028,1.3095,1.3096,1.3088,1.3087,1.3101,1.311,1.3113,0,0,1.2824,1.2829,1.2848,1.2857,1.2904,1.292,1.2966,1.3009,1.3027,1.3072,1.3074,1.3088,1.3087,1.3101,1.313,1.3132,0,0,0,1.2849,1.2862,1.2878,1.2906,1.2939,1.2968,1.3006,1.3022,1.3061,1.3047,1.3097,1.3097,1.3106,1.3112,1.3113,1.3122,1.3097,1.3097,1.3097,1.2852,1.2875,1.2908,1.294,1.2966,1.3005,1.303,1.3058,1.3073,1.3084,1.3098,1.3113,1.3118,1.3119,1.3128,1.3104,1.3104,1.3104,1.3104,1.2883,1.2906,1.2926,1.2964,1.2988,1.3021,1.306,1.307,1.3104,1.3104,1.3113,1.3112,1.312,1.313,1.3104,1.3104,1.3104,1.3104,1.3104,1.2889,1.2904,1.2923,1.2966,1.2997,1.3029,1.3061,1.3082,1.3102,1.3111,1.3127,1.3128,1.3131,1.3117,1.3117,1.3117,1.3117,1.3117,1.3117,1.2887,1.2909,1.2934,1.2972,1.2993,1.3023,1.3063,1.3085,1.3114,1.3127,1.3127,1.3141,1.3117,1.3111,1.3118,1.3118,1.3118,1.3118,1.3118,1.291,1.2908,1.2946,1.2968,1.3015,1.3044,1.3071,1.3113,1.3134,1.3149,1.3162,1.314,1.3147,1.3146,1.3141,1.3156,1.3156,1.3156,1.3156,1.2915,1.292,1.2964,1.2997,1.3032,1.3059,1.3103,1.3134,1.3167,1.3181,1.3182,1.3177,1.3175,1.3183,1.3182,1.3177,1.3201,1.3201,1.3201,1.2931,1.2941,1.2973,1.3005,1.3043,1.3076,1.3118,1.3155,1.3192,1.3204,1.3194,1.3192,1.3184,1.318,1.3191,1.3188,1.3181,0,0]},{"header":{"parameterUnit":"m.s-1","parameterCategory":1,"la1":30.2992,"la2":30.254,"lo1":-89.0895,"lo2":-89.0443,"dy":0.0025,"dx":0.0025,"nx":19,"ny":19,"refTime":"2026-03-20T09:00:00:Z","depth":0,"parameterNumber":3,"parameterNumberName":"V-component_of_WINDS"},"data":[0,0,0,-0.2569,-0.257,-0.2659,-0.2659,-0.2766,-0.2767,0,0,0,0,0,0,0,0,0,0,0,-0.2538,-0.2538,-0.2568,-0.257,-0.2659,-0.2659,-0.2766,-0.2767,0,0,0,0,0,0,0,0,0,0,0,-0.2537,-0.2538,-0.2539,-0.2571,-0.2659,-0.2659,-0.2766,-0.2702,0,0,0,0,0,0,0,0,0,0,-0.2617,-0.2583,-0.2538,-0.2539,-0.2571,-0.2658,-0.2659,-0.2699,-0.2706,-0.2723,0,-0.2737,0,-0.2754,-0.2774,-0.2774,0,0,0,-0.2574,-0.2577,-0.2606,-0.2539,-0.2572,-0.2658,-0.262,-0.2703,-0.2711,-0.2733,-0.2738,-0.2743,-0.2755,-0.2775,-0.2775,-0.2862,-0.2862,0,0,-0.257,-0.2551,-0.26,-0.261,-0.2595,-0.2617,-0.2623,-0.2708,-0.2713,-0.2739,-0.2745,-0.2757,-0.2775,-0.2776,-0.2862,-0.2862,0,0,0,-0.2553,-0.2547,-0.2574,-0.2606,-0.2622,-0.262,-0.2626,-0.2709,-0.2719,-0.2746,-0.2758,-0.2776,-0.2777,-0.2861,-0.2862,-0.2855,0,0,0,-0.255,-0.2538,-0.2571,-0.2561,-0.262,-0.2666,-0.2625,-0.2713,-0.2724,-0.2758,-0.2776,-0.2778,-0.2861,-0.2862,-0.2854,-0.2854,0,0,0,-0.2534,-0.2536,-0.2547,-0.256,-0.2597,-0.2665,-0.2681,-0.2716,-0.2731,-0.2774,-0.2778,-0.2861,-0.2862,-0.2854,-0.2854,-0.2872,0,0,0,-0.2511,-0.2539,-0.2546,-0.2583,-0.2596,-0.266,-0.268,-0.2729,-0.2765,-0.2776,-0.2861,-0.2862,-0.2854,-0.2854,-0.2872,-0.2884,-0.2888,0,0,-0.2537,-0.2542,-0.2565,-0.2574,-0.2632,-0.2648,-0.2705,-0.2757,-0.2778,-0.2833,-0.2836,-0.2854,-0.2854,-0.2872,-0.2912,-0.2915,0,0,0,-0.2567,-0.2583,-0.2603,-0.2636,-0.2676,-0.271,-0.2754,-0.2774,-0.2821,-0.2802,-0.2866,-0.2867,-0.2878,-0.2885,-0.2887,-0.2899,-0.2864,-0.2864,-0.2864,-0.2577,-0.2603,-0.2643,-0.268,-0.2712,-0.2758,-0.2787,-0.2821,-0.2838,-0.2853,-0.2869,-0.289,-0.2898,-0.2899,-0.2911,-0.2878,-0.2878,-0.2878,-0.2878,-0.2618,-0.2646,-0.2667,-0.2714,-0.2742,-0.2782,-0.2828,-0.2839,-0.2881,-0.288,-0.2891,-0.2888,-0.2901,-0.2913,-0.2877,-0.2877,-0.2877,-0.2877,-0.2877,-0.2628,-0.2646,-0.2668,-0.272,-0.2757,-0.2794,-0.2834,-0.2857,-0.288,-0.2891,-0.2912,-0.2912,-0.2916,-0.2899,-0.29,-0.29,-0.29,-0.29,-0.29,-0.2629,-0.2655,-0.2685,-0.273,-0.2755,-0.2791,-0.2838,-0.2864,-0.2899,-0.2914,-0.2914,-0.293,-0.2897,-0.2889,-0.2901,-0.2901,-0.2901,-0.2901,-0.29,-0.2662,-0.2658,-0.2704,-0.273,-0.2785,-0.2821,-0.2851,-0.2902,-0.2927,-0.2946,-0.296,-0.2932,-0.2939,-0.2938,-0.2931,-0.2953,-0.2953,-0.2953,-0.2953,-0.267,-0.2676,-0.2729,-0.2768,-0.2809,-0.2841,-0.2894,-0.2932,-0.297,-0.2988,-0.2988,-0.2981,-0.2978,-0.2987,-0.2985,-0.2979,-0.3013,-0.3013,-0.3013,-0.2692,-0.2703,-0.2743,-0.2779,-0.2825,-0.2864,-0.2915,-0.296,-0.3003,-0.3016,-0.3002,-0.3,-0.2989,-0.2984,-0.2996,-0.2992,-0.2982,0,0]}]]